Location: Banff
(51.1667°N, 115.5667°W)
Time: 11:20:37
(UTC+00:00)

Vanguard 1 Rocket - Pass Details

Date: 26 November 2020
Orbit: 655 x 4222 km, 34.3° (Epoch: 23 January)

Event Time Altitude Azimuth Distance (km) Brightness Sun altitude
Rises 06:01:01 0° 173° (S) 8,225 - -55.2°
Reaches altitude 10° 06:12:43 10° 150° (SSE) 7,420 - -56.3°
Maximum altitude 06:21:17 13° 130° (SE) 7,062 - -57.0°
Drops below altitude 10° 06:29:20 10° 110° (ESE) 6,998 - -57.6°
Exits shadow 06:36:15 - 94° (E) 7,208 11.8 -58.1°
Sets 06:39:06 0° 88° (E) 7,372 11.9 -58.3°
